Regional Weather Roundup
Issued by NWS

Home | Current Version | Previous Version | Graphics & Text | Print | Product List | Glossary Off
Versions: 1 2 3 4 5 6 7 8 9 10 11 12 13 14 15 16 17 18 19 20 21 22 23 24 25 26 27 28 29 30 31 32 33 34 35 36 37 38 39 40 41 42 43 44 45 46 47 48 49 50

000
ASUS43 KDMX 172301
RWRIA

WEATHER ROUNDUP FOR IOWA
NATIONAL WEATHER SERVICE DES MOINES IA
500 PM CST FRI NOV 17 2017

NOTE: "FAIR" INDICATES FEW OR NO CLOUDS BELOW 12,000 FEET WITH NO
SIGNIFICANT WEATHER AND/OR OBSTRUCTIONS TO VISIBILITY.

* - THESE STATIONS ARE NOT NWS STATIONS...THUS NOT UNDER NWS
QUALITY CONTROL.  THEY ALSO DO NOT REPORT WEATHER SUCH
AS PRECIPITATION OR FOG.

IAZ001>003-012>014-020>022-031>034-043>046-180000-
   NORTHWEST IOWA

CITY           SKY/WX    TMP DP  RH WIND       PRES   REMARKS
CARROLL *      FOG       50  50 100 CALM      29.53S VSB 1/2
CHEROKEE *     MOCLDY    51  45  80 N5        29.55R
DENISON *      CLOUDY    52  52 100 CALM      29.54S FOG
LE MARS *      PTCLDY    52  43  71 N6        29.57R
ORANGE CITY *  PTCLDY    52  45  76 N7        29.57R
SHELDON *      CLOUDY    46  39  76 N13G20    29.56R
SIOUX CITY     CLOUDY    50  38  63 NW7       29.54S
SPENCER        CLOUDY    48  43  82 NE8       29.56R
STORM LAKE *   MOCLDY    48  46  93 CALM      29.54R FOG
$$

IAZ055>058-069>071-079>083-090>094-180000-
   SOUTHWEST IOWA

CITY           SKY/WX    TMP DP  RH WIND       PRES   REMARKS
ATLANTIC *     CLOUDY    54  54 100 CALM      29.52R FOG
AUDUBON *      DRIZZLE   52  48  87 CALM      29.54S
CLARINDA *     CLOUDY    59  59 100 CALM        N/A  FOG
COUNCIL BLFS * CLOUDY    55  55 100 NE5       29.51S FOG
CRESTON *      FOG       54  52  94 E6        29.53S VSB<1/4
HARLAN  *      CLOUDY    54  54 100 CALM      29.56R
LAMONI         FOG       54  54 100 SE7       29.53R VSB<1/4
RED OAK *      CLOUDY    57  57 100 CALM      29.52R FOG
SHENANDOAH *   CLOUDY    59  57  94 NE6       29.51R FOG
$$

IAZ047>049-059>061-072>074-084-180000-
   CENTRAL IOWA

CITY           SKY/WX    TMP DP  RH WIND       PRES   REMARKS
AMES           CLOUDY    46  46 100 SE3       29.54F FOG
ANKENY *       CLOUDY    50  48  93 E5        29.55S
BOONE *        CLOUDY    48  46  93 E5        29.53S FOG
CHARITON *     CLOUDY    54  52  94 S5        29.54S FOG
DES MOINES     CLOUDY    51  49  92 E3        29.53F FOG
GRINNELL*      CLOUDY    46  43  90 SE9       29.56F
KNOXVILLE *    CLOUDY    52  50  93 S7        29.53S FOG
MARSHALLTOWN   CLOUDY    44  44 100 E6        29.55S FOG
NEWTON *       CLOUDY    46  45  93 S8        29.55S
PELLA *        CLOUDY    48  45  88 SE5       29.56S
PERRY *        CLOUDY    51  49  94 E3        29.53F
$$

IAZ004>006-015-016-023>025-035-036-180000-
   NORTH CENTRAL IOWA

CITY           SKY/WX    TMP DP  RH WIND       PRES   REMARKS
ALGONA *       FOG       45  45 100 NE5       29.56R VSB 1/2
CLARION *      FOG       45  45 100 SE6       29.56S VSB 1
ESTHERVILLE    CLOUDY    42  41  96 NE5       29.57R
FORT DODGE *   CLOUDY    45  45 100 E8        29.54F FOG
MASON CITY     CLOUDY    40  39  97 E5        29.58F FOG
FOREST CITY *  CLOUDY    41  41 100 E3        29.57S FOG
WEBSTER CITY * FOG       45  45 100 E3        29.53F VSB 1/2
IOWA FALLS *   FOG       44  43  97 CALM      29.57S VSB 1
$$

IAZ007>011-017>019-026>030-037>042-050>054-066-180000-
   NORTHEAST IOWA

CITY           SKY/WX    TMP DP  RH WIND       PRES   REMARKS
CEDAR RAPIDS   LGT RAIN  42  42 100 SE7       29.57F FOG
CHARLES CITY * MIX PCPN  39  39 100 E5        29.59S VSB 1
CLINTON *      CLOUDY    41  39  93 SE8       29.63F FOG
DECORAH *      CLOUDY    37  37 100 CALM      29.59F FOG
DUBUQUE        CLOUDY    38  38 100 S9        29.60F FOG     WCI  31
MONTICELLO *   CLOUDY    41  41 100 SE9       29.59F FOG
OELWEIN *      FOG       39  39 100 SE8       29.59S VSB 3/4 WCI  34
WATERLOO       CLOUDY    41  39  93 CALM      29.59R FOG
$$

IAZ064-065-067-068-078-180000-
   EAST CENTRAL IOWA

CITY           SKY/WX    TMP DP  RH WIND       PRES   REMARKS
DAVENPORT      CLOUDY    44  41  89 S8        29.63F FOG
IOWA CITY      LGT RAIN  45  43  93 SE6       29.61S FOG
MT. PLEASANT * CLOUDY    45  44  97 SE9       29.60S FOG
MUSCATINE *    CLOUDY    46  41  81 S9        29.61S
QUAD CITIES    CLOUDY    46  40  79 SE7       29.61F
$$

IAZ062-063-075>077-085>089-095>099-180000-
   SOUTHEAST IOWA

CITY           SKY/WX    TMP DP  RH WIND       PRES   REMARKS
BURLINGTON     CLOUDY    47  43  86 SE9       29.60F
FAIRFIELD *    CLOUDY    48  45  87 S12       29.57F FOG
FORT MADISON * CLOUDY    46  45  93 SE9       29.60F FOG
KEOKUK *       CLOUDY    50  46  87 SE8       29.58F
OSKALOOSA *    CLOUDY    46  44  95 SE10      29.57S FOG
OTTUMWA        CLOUDY    48  46  93 SE8       29.56F FOG
WASHINGTON *   CLOUDY    46  46 100 S12       29.60S FOG
$$

ABBREVIATIONS USED IN REMARKS
   TC - TEMPERATURES IN CELSIUS
  WCI - WIND CHILL INDEX
   HX - HEAT INDEX
  VSB - VISIBILITY
$$




USA.gov is the U.S. government's official web portal to all federal, state and local government web resources and services.